"TOA5","AWS1","CR1000","7964","CR1000.Std.14","CPU:AWS1_114.CR1","64363","TBL110"
"TIMESTAMP","RECORD","Wind_spd_WVc(1)","Wind_spd_WVc(2)","Air_Temp_Avg","Humidity_Avg","SW_upper_Wm2_Avg","Rain_Tot","Press_Avg","Issui_Tot","Depth_cm","SR50A_Raw","Quality","Ground_Temp_Avg(1)","Ground_Temp_Avg(2)","SW_lower_Wm2_Avg","Albedo_Avg","SWC_per(1)","SWC_per(2)","Period(1)","Period(2)"
"TS","RN","","","","","","","","","","","","","","","","","","",""
"","","WVc","WVc","Avg","Avg","Avg","Tot","Avg","Tot","Smp","Smp","Smp","Avg","Avg","Avg","Avg","Smp","Smp","Smp","Smp"
"2018-06-12 00:00:00",344653,0,0,14.91,100,0,0,851.4708,0,-16.7,3.259,194,16.87,16.06,0.2273725,0,49.95,56.93,33.28,34.97
"2018-06-12 00:10:00",344654,0,0,14.87,100,0,0,851.4835,0,2.813,3.069,235,16.9,16.06,0.2197934,0,49.95,56.93,33.28,34.97
"2018-06-12 00:20:00",344655,0,0,14.87,100,0,0,851.4856,0,-20.76,3.299,200,16.89,16.06,0.2349515,0,49.95,56.98,33.28,34.98
"2018-06-12 00:30:00",344656,0,0,14.9,100,0,0,851.5067,0,-21.84,3.309,237,16.85,16.06,0.1970561,0,50.01,56.98,33.3,34.98
"2018-06-12 00:40:00",344657,0,0,14.83,100,0,0,851.6373,0,28.53,2.819,334,16.84,16.06,0.2273725,0,50.01,56.98,33.3,34.98
"2018-06-12 00:50:00",344658,0,0,14.82,100,0,0,851.494,0,27.56,2.828,230,16.84,16.06,0.2197934,0,50.01,56.98,33.3,34.98
"2018-06-12 01:00:00",344659,0,0,14.8,100,0,0,851.4835,0,-13.65,3.23,183,16.84,16.03,0.2273725,0,50.01,56.98,33.3,34.98
"2018-06-12 01:10:00",344660,0,0,14.79,100,0,0,851.3571,0,-16.75,3.26,170,16.86,16.04,0.2273725,0,50.01,56.98,33.3,34.98
"2018-06-12 01:20:00",344661,0,0,14.81,100,0,0,851.3192,0,-16.8,3.26,172,16.87,16.02,0.2463202,0,50.01,56.98,33.3,34.98
"2018-06-12 01:30:00",344662,0,0,14.9,100,0,0,851.3571,0,15.43,2.947,280,16.8,16.01,0.2766365,0,50.01,56.98,33.3,34.98
"2018-06-12 01:40:00",344663,0,0,14.87,100,0,0,851.2602,0,-27.89,3.368,187,16.76,15.98,0.2463202,0,50.06,56.98,33.31,34.98
"2018-06-12 01:50:00",344664,0.036,53.14,14.83,100,0,0,851.2728,0,14.41,2.957,362,16.75,16,0.231162,0,50.06,56.98,33.31,34.98
"2018-06-12 02:00:00",344665,0.037,80.8,14.83,100,0,0,851.3593,0,15,2.951,302,16.75,15.97,0.2160038,0,50.11,56.98,33.33,34.98
"2018-06-12 02:10:00",344666,0.025,25.56,14.8,100,0,0,851.4098,0,15.28,2.948,293,16.75,15.97,0.2046352,0,50.11,56.98,33.33,34.98
"2018-06-12 02:20:00",344667,0,0,14.84,100,0,0,851.4203,0,15.64,2.945,312,16.71,15.97,0.2273725,0,50.11,57.04,33.33,34.99
"2018-06-12 02:30:00",344668,0,0,14.82,100,0,0,851.5298,0,15.31,2.948,260,16.69,15.97,0.1553712,0,50.11,57.04,33.33,34.99
"2018-06-12 02:40:00",344669,0,0,14.8,100,0,0,851.7363,0,15.68,2.945,294,16.68,15.97,0.1856875,0,50.17,57.04,33.34,34.99
"2018-06-12 02:50:00",344670,0.044,113.3,14.74,100,0,0,851.7363,0,-20.5,3.297,222,16.66,15.98,0.2235829,0,50.22,57.04,33.35,34.99
"2018-06-12 03:00:00",344671,0.036,61.71,14.66,100,0,0,851.7468,0,15.27,2.949,262,16.67,15.98,0.1629503,0,50.22,57.04,33.35,34.99
"2018-06-12 03:10:00",344672,0,0,14.65,100,0,0,851.8647,0,26.24,2.843,398,16.67,15.99,0.2160038,0,50.22,57.1,33.35,35.01
"2018-06-12 03:20:00",344673,0,0,14.62,100,0,0,851.989,0,19.32,2.91,233,16.67,16,0.2273725,0,50.28,57.04,33.37,34.99
"2018-06-12 03:30:00",344674,0.066,333.1,14.58,100,0,0,852.069,0,15.31,2.95,233,16.67,16.01,0.1591607,0,50.33,57.1,33.38,35.01
"2018-06-12 03:40:00",344675,0.034,310.9,14.14,100,0,0,852.1975,0,-15.76,3.255,196,16.69,16.03,0,0,50.33,57.1,33.38,35.01
"2018-06-12 03:50:00",344676,0.086,296.2,13.96,100,0,0,852.1891,0,14.76,2.958,433,16.67,16.04,0.1591607,0,50.33,57.16,33.38,35.02
"2018-06-12 04:00:00",344677,0,0,14.02,100,0,0,852.2186,0,19.34,2.912,362,16.61,16.03,0.2614783,0,50.33,57.16,33.38,35.02
"2018-06-12 04:10:00",344678,0,0,14.08,100,0,0,852.2418,0,-20.56,3.302,201,16.58,16.01,0.272847,0,50.33,57.16,33.38,35.02
"2018-06-12 04:20:00",344679,0,0,14,100,0,0,852.1533,0,15.95,2.946,333,16.58,15.99,0.3600064,0,50.33,57.16,33.38,35.02
"2018-06-12 04:30:00",344680,0.303,34.9,13.95,100,0.3576558,0,852.0564,0,5.377,3.05,443,16.58,15.98,0.5077985,0.932,50.39,57.16,33.39,35.02
"2018-06-12 04:40:00",344681,0.214,14.6,13.96,100,1.410972,0,852.2396,0,29.48,2.814,349,16.51,15.97,1.144441,0.833,50.39,57.22,33.39,35.03
"2018-06-12 04:50:00",344682,0.214,14.55,14.09,100,4.311521,0,852.2418,0,-22.76,3.323,236,16.51,15.97,1.553712,0.373,50.39,57.22,33.39,35.03
"2018-06-12 05:00:00",344683,0.501,201.1,14.02,100,7.829124,0,852.3892,0,22.3,2.884,278,16.56,15.97,1.928876,0.262,50.39,57.27,33.39,35.05
"2018-06-12 05:10:00",344684,0.911,184.8,13.89,100,20.02479,0,852.3113,0,-23.25,3.329,198,16.58,15.97,3.452272,0.172,50.44,57.27,33.41,35.05
"2018-06-12 05:20:00",344685,0.838,196.4,13.82,100,30.9274,0,852.2228,0,22.33,2.885,228,16.56,15.96,4.691452,0.152,50.39,57.22,33.39,35.03
"2018-06-12 05:30:00",344686,1.018,189.2,13.77,100,56.11658,0,852.1406,0,23.32,2.875,304,16.51,15.95,8.329412,0.148,50.44,57.22,33.41,35.03
"2018-06-12 05:40:00",344687,0.901,178.6,13.8,100,78.86507,0,851.9996,0,-14.97,3.248,189,16.49,15.92,12.03558,0.152,50.44,57.27,33.41,35.05
"2018-06-12 05:50:00",344688,0.575,210,13.92,100,76.93137,0,851.9911,0,14.66,2.959,272,16.49,15.9,11.61873,0.151,50.39,57.27,33.39,35.05
"2018-06-12 06:00:00",344689,0.337,239,14.07,100,52.34745,0,852.0143,0,28.97,2.819,344,16.5,15.9,7.238023,0.135,50.44,57.33,33.41,35.06
"2018-06-12 06:10:00",344690,0.556,204.1,13.95,100,74.92692,0,851.9637,0,23.84,2.869,315,16.53,15.89,14.02509,0.164,50.44,57.33,33.41,35.06
"2018-06-12 06:20:00",344691,0.258,62.5,14.38,100,149.001,0,851.989,0,28.21,2.823,304,16.51,15.9,36.3758,0.249,50.44,57.33,33.41,35.06
"2018-06-12 06:30:00",344692,0.191,259,14.69,100,121.3986,0,851.989,0,25.48,2.85,302,16.49,15.91,16.86725,0.139,50.44,57.33,33.41,35.06
"2018-06-12 06:40:00",344693,0.084,335.8,14.7,99.7,162.4819,0,851.989,0,25.48,2.85,308,16.5,15.89,24.57138,0.147,50.44,57.33,33.41,35.06
"2018-06-12 06:50:00",344694,0.332,14.05,14.68,100,146.2734,0,851.989,0,-18.55,3.279,182,16.5,15.89,20.96753,0.141,50.5,57.39,33.42,35.07
"2018-06-12 07:00:00",344695,0.087,356.5,14.42,100,94.29929,0,852.0164,0,26.64,2.84,328,16.52,15.89,12.7556,0.135,50.44,57.39,33.41,35.07
"2018-06-12 07:10:00",344696,0.054,335.2,14.34,100,79.54501,0,852.208,0,-24.5,3.337,184,16.49,15.89,10.53113,0.132,50.5,57.33,33.42,35.06
"2018-06-12 07:20:00",344697,0.212,316.3,14.39,100,67.39257,0,852.2354,0,19.8,2.908,249,16.45,15.88,9.087319,0.133,50.44,57.33,33.41,35.06
"2018-06-12 07:30:00",344698,0.19,298.9,14.22,100,82.6971,0,852.2796,0,23.66,2.869,302,16.42,15.88,11.36862,0.134,50.44,57.33,33.41,35.06
"2018-06-12 07:40:00",344699,0.023,67.27,14.41,100,49.34471,0,852.465,0,18.94,2.915,259,16.41,15.87,6.305796,0.128,50.44,57.39,33.41,35.07
"2018-06-12 07:50:00",344700,0.228,5.69,14.21,100,51.35701,0,852.3997,0,25.28,2.855,301,16.41,15.84,6.480115,0.126,50.44,57.39,33.41,35.07
"2018-06-12 08:00:00",344701,0.172,34.07,14.06,100,90.20786,0,852.246,0,17.44,2.931,339,16.41,15.87,12.01285,0.132,50.5,57.39,33.42,35.07
"2018-06-12 08:10:00",344702,0.304,72.8,14.38,100,276.1574,0,851.989,0,22.23,2.883,275,16.43,15.84,38.65332,0.137,50.44,57.39,33.41,35.07
"2018-06-12 08:20:00",344703,0.133,145.7,14.58,100,304.2118,0,851.9932,0,21.06,2.892,310,16.47,15.85,42.26854,0.139,50.5,57.39,33.42,35.07
"2018-06-12 08:30:00",344704,0.166,14.5,15.27,100,255.1619,0,852.1069,0,-14.8,3.239,170,16.48,15.88,35.44737,0.137,50.5,57.39,33.42,35.07
"2018-06-12 08:40:00",344705,0.195,20.84,15.05,100,156.72,0,852.2418,0,-14.9,3.241,171,16.48,15.84,22.22566,0.139,50.5,57.39,33.42,35.07
"2018-06-12 08:50:00",344706,0.182,324.1,15.09,100,164.671,0,852.2418,0,-11.98,3.213,188,16.48,15.83,22.78272,0.137,50.44,57.45,33.41,35.09
"2018-06-12 09:00:00",344707,0.379,300.2,14.61,100,126.5826,0,852.2418,0,-14.88,3.244,176,16.47,15.8,17.1022,0.133,50.44,57.45,33.41,35.09
"2018-06-12 09:10:00",344708,0.108,310.2,14.45,100,192.2813,0,852.2543,0,25.11,2.854,372,16.48,15.83,27.16343,0.14,50.5,57.45,33.42,35.09
"2018-06-12 09:20:00",344709,0.271,357.1,14.86,100,297.829,0,852.2418,0,16.53,2.935,211,16.49,15.81,43.82225,0.147,50.44,57.45,33.41,35.09
"2018-06-12 09:30:00",344710,0.216,37.78,15.25,100,313.9235,0,852.2839,0,-56.12,3.639,282,16.49,15.8,46.1225,0.147,50.44,57.45,33.41,35.09
"2018-06-12 09:40:00",344711,0.131,15.85,15.31,98.7,279.565,0,852.4334,0,16.55,2.933,211,16.45,15.8,40.35482,0.144,50.44,57.45,33.41,35.09
"2018-06-12 09:50:00",344712,0.109,79.83,15.49,100,309.0971,0,852.3681,0,16.21,2.935,213,16.41,15.8,44.67111,0.144,50.5,57.45,33.42,35.09
"2018-06-12 10:00:00",344713,0.24,34.84,15.6,100,268.3047,0,852.3513,0,18.06,2.917,242,16.43,15.8,40.60493,0.15,50.5,57.51,33.42,35.1
"2018-06-12 10:10:00",344714,0.344,32.75,15.53,100,208.3876,0,852.2944,0,16.14,2.937,232,16.49,15.8,31.90036,0.153,50.5,57.51,33.42,35.1
"2018-06-12 10:20:00",344715,0.286,12.28,15.68,99.8,298.0727,0,852.2501,0,15.65,2.94,212,16.54,15.8,44.97048,0.15,50.5,57.51,33.42,35.1
"2018-06-12 10:30:00",344716,0.181,283.5,15.43,100,129.1648,0,852.3934,0,18.63,2.913,229,16.58,15.78,18.09506,0.139,50.44,57.51,33.41,35.1
"2018-06-12 10:40:00",344717,0.32,281.2,15.41,100,460.2205,0,852.4818,0,20.9,2.889,294,16.54,15.77,71.83833,0.154,50.5,57.51,33.42,35.1
"2018-06-12 10:50:00",344718,0.37,304.3,15.33,97.9,198.6326,0,852.4944,0,16.73,2.933,218,16.5,15.78,28.96725,0.146,50.5,57.51,33.42,35.1
"2018-06-12 11:00:00",344719,0.1,291.1,15.26,98.5,288.3099,0,852.5021,0,17.22,2.925,228,16.61,15.76,45.14101,0.156,50.44,57.51,33.41,35.1
"2018-06-12 11:10:00",344720,0.287,357.6,15.64,90,392.765,0,852.334,0,17.81,2.919,238,16.63,15.73,62.83438,0.16,50.5,57.51,33.42,35.1
"2018-06-12 11:20:00",344721,0.321,307.1,15.85,85.8,385.3368,0,852.1943,0,-17,3.256,183,16.59,15.72,59.45032,0.151,50.5,57.51,33.42,35.1
"2018-06-12 11:30:00",344722,0.688,10.49,16.45,85.8,860.736,0,851.993,0,23.47,2.861,268,16.64,15.76,133.2971,0.154,50.44,57.51,33.41,35.1
"2018-06-12 11:40:00",344723,0.332,70.41,16.19,89.6,169.4738,0,852.1448,0,21.94,2.878,330,16.75,15.76,25.34824,0.149,50.44,57.51,33.41,35.1
"2018-06-12 11:50:00",344724,0.314,287.8,15.61,100,105.5085,0,852.446,0,15.98,2.939,250,16.75,15.74,14.22594,0.13,50.44,57.56,33.41,35.12
"2018-06-12 12:00:00",344725,1.065,296.5,14.2,95.4,60.1805,0,852.684,0,318,0,0,16.75,15.8,6.953807,0.11,50.44,57.56,33.41,35.12
"2018-06-12 12:10:00",344726,1.092,312,13.12,97.6,223.0004,0,852.8441,0,-20.94,3.311,193,16.75,15.79,30.42623,0.136,50.44,57.56,33.41,35.12
"2018-06-12 12:20:00",344727,1.156,288.3,13.19,98.4,357.7069,0,852.9726,0,-13.87,3.241,170,16.8,15.76,48.85855,0.136,50.44,57.56,33.41,35.12
"2018-06-12 12:30:00",344728,0.956,299.4,13.3,100,259.1472,0,853.1937,0,24.26,2.869,255,16.84,15.77,34.20061,0.132,50.44,57.56,33.41,35.12
"2018-06-12 12:40:00",344729,0.404,88.5,13.21,100,93.79228,0,853.2527,0,21.25,2.9,276,16.84,15.77,12.18716,0.131,50.44,57.56,33.41,35.12
"2018-06-12 12:50:00",344730,0.404,213,12.99,100,113.6324,0,853.2527,0,-15.28,3.256,170,16.84,15.8,15.05964,0.132,50.44,57.56,33.41,35.12
"2018-06-12 13:00:00",344731,0.482,211.4,12.94,100,132.8318,0,853.2527,0,19.26,2.919,256,16.9,15.8,18.44748,0.138,50.44,57.56,33.41,35.12
"2018-06-12 13:10:00",344732,0.69,190.8,13.2,100,281.766,0,853.2611,0,16.55,2.943,241,16.87,15.77,38.87311,0.138,50.44,57.56,33.41,35.12
"2018-06-12 13:20:00",344733,0.674,208.2,13.59,100,209.8811,0,853.4781,0,21.97,2.889,331,16.93,15.78,28.88388,0.137,50.44,57.56,33.41,35.12
"2018-06-12 13:30:00",344734,0.362,185,13.7,100,204.9879,0,853.4402,0,-25.78,3.354,224,16.93,15.8,29.30452,0.143,50.44,57.56,33.41,35.12
"2018-06-12 13:40:00",344735,0.617,245.2,13.81,99.7,390.2339,0,853.2927,0,20.89,2.898,301,16.93,15.81,56.98333,0.145,50.44,57.56,33.41,35.12
"2018-06-12 13:50:00",344736,0.825,207.1,13.9,97.2,270.714,0,853.2527,0,16.24,2.944,228,16.93,15.8,38.89964,0.143,50.44,57.56,33.41,35.12
"2018-06-12 14:00:00",344737,0.736,233.4,13.82,98.2,207.8609,0,853.2527,0,-12.31,3.224,181,16.95,15.8,30.69149,0.146,50.44,57.56,33.41,35.12
"2018-06-12 14:10:00",344738,0.434,231.6,14.19,94.5,683.0283,0,853.198,0,-15.52,3.249,196,16.98,15.8,103.7576,0.15,50.44,57.56,33.41,35.12
"2018-06-12 14:20:00",344739,0.605,196.9,15.5,88.8,1025.093,0,852.9747,0,21.04,2.888,300,17.01,15.81,160.6993,0.156,50.44,57.62,33.41,35.13
"2018-06-12 14:30:00",344740,0.686,247.8,15.37,81,723.1879,0,852.8273,0,20.6,2.893,270,17.02,15.85,110.2832,0.15,50.44,57.62,33.41,35.13
"2018-06-12 14:40:00",344741,0.384,155.4,15.63,81.2,571.6597,0,852.7662,0,16.57,2.932,245,17.02,15.85,83.39643,0.145,50.44,57.62,33.41,35.13
"2018-06-12 14:50:00",344742,0.562,85.2,15.43,83.6,256.7458,0,852.8399,0,-15.49,3.246,217,17.02,15.84,37.45203,0.146,50.39,57.62,33.39,35.13
"2018-06-12 15:00:00",344743,0.384,84.7,14.97,84.5,259.7878,0,853.0317,0,14.42,2.956,259,17.02,15.8,39.86976,0.153,50.44,57.62,33.41,35.13
"2018-06-12 15:10:00",344744,0.681,268.8,14.59,82.8,320.3849,0,853.246,0,16.45,2.938,262,17.03,15.8,50.30237,0.157,50.44,57.62,33.41,35.13
"2018-06-12 15:20:00",344745,0.81,330.2,14.6,81.3,366.1884,0,853.2485,0,-20.86,3.301,198,17.15,15.78,56.00941,0.154,50.39,57.62,33.39,35.13
"2018-06-12 15:30:00",344746,0.891,298.5,14.73,79.83,319.0172,0,853.257,0,15.94,2.943,240,17.12,15.8,46.30061,0.149,50.44,57.62,33.41,35.13
"2018-06-12 15:40:00",344747,0.779,273.2,14.58,79.12,275.7644,0,853.3217,0,15.32,2.949,253,17.13,15.79,45.00838,0.163,50.39,57.62,33.39,35.13
"2018-06-12 15:50:00",344748,0.402,241.5,14.81,80.8,293.093,0,853.3495,0,16.21,2.939,242,17.24,15.8,47.248,0.161,50.44,57.62,33.41,35.13
"2018-06-12 16:00:00",344749,0.416,232.3,14.84,80.2,243.2728,0,853.3538,0,16.52,2.936,222,17.2,15.8,39.00574,0.16,50.39,57.62,33.39,35.13
"2018-06-12 16:10:00",344750,0.535,80.7,14.84,79.01,229.108,0,853.4991,0,16.5,2.937,288,17.25,15.8,37.22466,0.162,50.39,57.62,33.39,35.13
"2018-06-12 16:20:00",344751,0.466,156.9,14.7,80.9,269.2244,0,853.3011,0,14.09,2.961,295,17.35,15.81,44.47784,0.165,50.44,57.62,33.41,35.13
"2018-06-12 16:30:00",344752,0.555,153.2,14.53,82.1,127.3923,0,853.2527,0,22.52,2.881,276,17.28,15.88,18.98181,0.145,50.39,57.62,33.39,35.13
"2018-06-12 16:40:00",344753,0.506,211.5,14.13,88.1,112.5201,0,853.2485,0,-23.99,3.335,218,17.31,15.87,18.36411,0.161,50.44,57.62,33.41,35.13
"2018-06-12 16:50:00",344754,0.644,227.6,14.46,85.4,237.5738,0,853.2527,0,-21.35,3.305,186,17.39,15.87,42.23443,0.178,50.39,57.62,33.39,35.13
"2018-06-12 17:00:00",344755,0.622,348.4,14.92,80.8,179.5707,0,853.2527,0,20.2,2.901,270,17.44,15.86,29.75169,0.165,50.39,57.62,33.39,35.13
"2018-06-12 17:10:00",344756,0.792,325.5,14.46,78.92,166.9859,0,853.337,0,20.01,2.905,267,17.45,15.89,27.29985,0.163,50.39,57.62,33.39,35.13
"2018-06-12 17:20:00",344757,0.508,292.8,14.12,82.5,107.7369,0,853.4212,0,17.02,2.936,249,17.45,15.89,16.73082,0.155,50.39,57.62,33.39,35.13
"2018-06-12 17:30:00",344758,1.056,289.8,13.75,82.6,96.01289,0,853.5012,0,16.77,2.94,232,17.45,15.85,15.71902,0.163,50.39,57.62,33.39,35.13
"2018-06-12 17:40:00",344759,0.535,298.1,13.62,84.6,78.41309,0,853.5328,0,17.46,2.933,248,17.45,15.85,13.1535,0.168,50.39,57.62,33.39,35.13
"2018-06-12 17:50:00",344760,0.763,275.3,13.62,85.5,95.29758,0,853.7055,0,-21.68,3.315,189,17.45,15.87,16.65124,0.175,50.33,57.62,33.38,35.13
"2018-06-12 18:00:00",344761,0.51,256.1,13.57,87.4,93.22632,0,853.7582,0,15.71,2.951,256,17.45,15.89,15.89334,0.17,50.33,57.62,33.38,35.13
"2018-06-12 18:10:00",344762,0.487,238.6,13.45,90.2,59.22544,0,853.7372,0,-25.75,3.356,201,17.45,15.88,9.178268,0.154,50.33,57.62,33.38,35.13
"2018-06-12 18:20:00",344763,0.627,239.9,13.21,93.5,35.29002,0,853.7582,0,18.88,2.922,405,17.45,15.89,5.61231,0.159,50.33,57.62,33.38,35.13
"2018-06-12 18:30:00",344764,0.696,230,12.98,94.1,27.39408,0,853.7582,0,-15.13,3.255,194,17.45,15.89,4.729347,0.173,50.33,57.62,33.38,35.13
"2018-06-12 18:40:00",344765,0.5,230.5,12.91,94.2,25.72763,0,853.7582,0,-21.88,3.322,200,17.45,15.89,4.604292,0.179,50.33,57.62,33.38,35.13
"2018-06-12 18:50:00",344766,0.521,248.6,12.74,90,15.52462,0,853.973,0,19.29,2.92,286,17.45,15.89,2.766365,0.177,50.33,57.62,33.38,35.13
"2018-06-12 19:00:00",344767,0.616,270.4,12.56,89.3,6.866205,0,854.0173,0,20.92,2.905,267,17.45,15.89,1.40213,0.207,50.33,57.62,33.38,35.13
"2018-06-12 19:10:00",344768,0.561,229.7,12.36,92.3,1.485647,0,854.0152,0,21.05,2.905,256,17.44,15.9,0.5229567,0.414,50.33,57.62,33.38,35.13
"2018-06-12 19:20:00",344769,0.364,199.6,12.21,92.4,0,0,854.0152,0,-20.04,3.308,192,17.45,15.9,0.2425306,0,50.33,57.62,33.38,35.13
"2018-06-12 19:30:00",344770,0.606,232,12.04,94.8,0,0,854.0257,0,318,0,0,17.42,15.94,0.0644222,0,50.33,57.62,33.38,35.13
"2018-06-12 19:40:00",344771,0.621,194.5,11.95,92,0,0,854.0004,0,17.11,2.946,244,17.37,15.96,0.1174771,0,50.33,57.62,33.38,35.13
"2018-06-12 19:50:00",344772,0.567,210.8,11.79,93.9,0,0,854.0068,0,17.06,2.947,249,17.41,16,0.1061168,0,50.33,57.62,33.38,35.13
"2018-06-12 20:00:00",344773,0.297,264.6,11.87,91.2,0,0,854.0489,0,17.32,2.943,252,17.47,16.02,0.530628,0,50.33,57.62,33.38,35.13
"2018-06-12 20:10:00",344774,0.669,288.2,11.99,90.8,0,0,854.2363,0,18.99,2.927,294,17.44,16.04,0.572364,0,50.33,57.62,33.38,35.13
"2018-06-12 20:20:00",344775,0.606,194.6,11.83,93.5,0,0,854.2637,0,17.29,2.945,296,17.39,16.05,0.219854,0,50.33,57.62,33.38,35.13
"2018-06-12 20:30:00",344776,0.55,282.8,11.68,94.7,0,0,854.3859,0,16.54,2.952,260,17.36,16.06,0.1402574,0,50.33,57.62,33.38,35.13
"2018-06-12 20:40:00",344777,0.462,243.2,11.65,91.6,0,0,854.5565,0,-20.55,3.316,170,17.35,16.07,0.2463978,0,50.33,57.62,33.38,35.13
"2018-06-12 20:50:00",344778,0.613,271,11.64,92,0,0,854.767,0,16.01,2.957,234,17.35,16.07,0.454878,0,50.33,57.62,33.38,35.13
"2018-06-12 21:00:00",344779,0.303,167.9,11.71,91.6,0,0,854.7692,0,19.32,2.925,282,17.31,16.1,0.4510952,0,50.33,57.62,33.38,35.13
"2018-06-12 21:10:00",344780,0.55,228.4,11.73,90.9,0,0,854.7713,0,17.08,2.947,300,17.29,16.13,0.3942418,0,50.33,57.62,33.38,35.13
"2018-06-12 21:20:00",344781,0.263,265,11.76,90.4,0,0,854.8956,0,18.15,2.936,274,17.28,16.14,0.4473168,0,50.39,57.62,33.39,35.13
"2018-06-12 21:30:00",344782,0.216,243,11.71,94.4,0,0,855.043,0,17.44,2.943,279,17.24,16.14,0.3601291,0,50.33,57.62,33.38,35.13
"2018-06-12 21:40:00",344783,0.163,270.4,11.69,95.4,0,0,855.2136,0,17.44,2.943,301,17.2,16.13,0.4207793,0,50.33,57.62,33.38,35.13
"2018-06-12 21:50:00",344784,0.635,279.1,11.59,94,0,0,855.0893,0,16.03,2.958,273,17.2,16.11,0.163003,0,50.33,57.62,33.38,35.13
"2018-06-12 22:00:00",344785,0.446,193.9,11.46,99.5,0,0,855.0262,0,21.61,2.904,405,17.18,16.11,0.01516254,0,50.33,57.62,33.38,35.13
"2018-06-12 22:10:00",344786,0.535,278.7,11.38,99.9,0,0,855.1926,0,20.81,2.912,280,17.12,16.11,0.3108316,0,50.33,57.62,33.38,35.13
"2018-06-12 22:20:00",344787,0.665,276.1,11.37,97.6,0,0,855.2747,0,19.59,2.924,275,17.08,16.11,0.2691409,0,50.33,57.62,33.38,35.13
"2018-06-12 22:30:00",344788,0.376,237.6,11.44,98.5,0,0,855.262,0,-18.76,3.299,177,17.1,16.11,0.3677058,0,50.33,57.62,33.38,35.13
"2018-06-12 22:40:00",344789,0.371,285.5,11.4,99,0,0,855.1104,0,-18.55,3.298,174,17.09,16.12,0.32979,0,50.33,57.62,33.38,35.13
"2018-06-12 22:50:00",344790,0.441,234.4,11.32,100,0,0,855.0325,0,16.4,2.955,251,17.02,16.12,0.1743696,0,50.33,57.62,33.38,35.13
"2018-06-12 23:00:00",344791,0.313,239.9,11.35,100,0,0,855.024,0,20.08,2.919,283,17.01,16.12,0.2501828,0,50.33,57.62,33.38,35.13
"2018-06-12 23:10:00",344792,0.389,249.1,11.32,100,0,0,855.0303,0,17.35,2.946,274,17.01,16.12,0.2274391,0,50.33,57.62,33.38,35.13
"2018-06-12 23:20:00",344793,0.572,288,11.17,100,0,0,855.1483,0,19.09,2.93,291,16.98,16.12,0.05685921,0,50.33,57.62,33.38,35.13
"2018-06-12 23:30:00",344794,0.285,224.5,11.16,100,0,0,855.262,0,-24.57,3.357,193,16.97,16.12,0.2918782,0,50.33,57.62,33.38,35.13
"2018-06-12 23:40:00",344795,0.025,284,11.3,100,0,0,855.2726,0,19.28,2.927,337,16.97,16.13,0.4548802,0,50.33,57.62,33.38,35.13
"2018-06-12 23:50:00",344796,0.599,307.6,11.07,100,0,0,855.2515,0,18.96,2.932,272,16.91,16.13,0.2350217,0,50.33,57.62,33.38,35.13
